Weather in Dolgoye

Russia / Lipetsk Oblast     53°27′32″N   39°06′21″E
temp.,
°C
wind,
m/s
gust,
m/s
humid.,
%
clouds,
%
prec.,
mm/h
press.,
hPa
HPBL,
m
16 may, sun
sun1600:00+14sw35860 0.0 101379
03:00+13ssw34895 0.0 101458
06:00+14s238535 0.0 101368
09:00+19ssw34680 0.0 1014450
12:00+22ssw355370 0.0 10141542
15:00+23ssw35458 0.0 10142117
18:00+22ssw23605 0.0 1013185
21:00+18ene116166 0.0 101411
17 may, mon
mon1700:00+16ene357118 0.0 101465
03:00+14ene48845 0.1 1014136
06:00+15e499198 0.0 1013196
09:00+21e697073 0.0 1013433
12:00+24se6856100 0.0 1012728
15:00+26ese68531 0.0 1011993
18:00+23ese612645 0.0 1011549
21:00+19ese6167770 0.0 1011353
18 may, tue
tue1800:00+18se6187046 0.0 1010391
03:00+16se516665 0.0 1010374
06:00+15se5137146 0.0 1010271
09:00+20se6125992 0.0 1010462
12:00+24se6104797 0.0 1010739
15:00+26ese61151100 0.0 10081484
18:00+23se61363100 0.0 1008553
21:00+19ese5147599 0.0 1007319
19 may, wed
wed1900:00+18ese61668100 0.0 1006404
03:00+16ese614635 0.0 1006316
06:00+15ese497660 0.0 1006191
09:00+19se577298 0.0 1006490
12:00+22sse566682 0.1 10051374
15:00+18sse710789 14.2 10061003
18:00+18sse697998 0.6 1006933
21:00+14se37928 0.9 1006143
20 may, thu
thu2000:00+13se3892100 0.1 1006190
03:00+11sse49955 0.1 1006247
06:00+11sse5109570 0.1 1006459
09:00+13sse7108785 0.4 1006833
12:00+13ssw7108491 1.8 10071021
15:00+11ssw71190100 2.6 1009834
18:00+11sw7128989 0.1 1010786
21:00+11ssw7138822 0.1 1011747